Terminal Aerodrome Forecast
Issued by NWS

Home | Current Version | Previous Version | Text Only | Print | Product List | Glossary On
Versions: 1 2 3 4 5 6 7 8 9 10 11 12 13 14 15 16 17 18 19 20 21 22 23 24 25 26 27 28 29 30 31 32 33 34 35 36 37 38 39 40 41 42 43 44 45 46 47 48 49 50
000
FTUS41 KOKX 160831 AAB
TAFSWF
TAF AMD
KSWF 160831Z 1609/1712 VRB03KT P6SM BKN060
      TEMPO 1609/1610 -SHRA
     FM161500 VRB03KT P6SM SCT030 BKN050
     FM161700 36005KT P6SM BKN020
     FM162200 03005KT P6SM SCT020 SCT080
     FM170200 04003KT P6SM FEW080
     FM170600 06004KT P6SM SKC
     AMD NOT SKED=

USA.gov is the U.S. government's official web portal to all federal, state and local government web resources and services.